Location: Luxembourg
(49.6117°N, 6.1300°E)
Time: 16:21:30
(UTC+02:00)

DOVE 4 - Visible Passes

Search period start: 19 October 2019 00:00
Search period end: 28 October 2019 23:00
Orbit: 589 x 801 km, 97.8° (Epoch: 19 October)

Date Brightness Start Highest point End Pass type
(mag) Time Alt. Az. Time Alt. Az. Time Alt. Az.
19 Oct ? 04:34:42 10° N 04:36:22 21° N 04:36:22 21° N visible
19 Oct ? 06:14:21 10° NNW 06:15:06 11° NW 06:15:06 11° NW visible
20 Oct ? 03:37:53 10° NNE 03:38:33 13° NNE 03:38:33 13° NNE visible
20 Oct ? 05:15:41 10° N 05:17:17 18° NNW 05:17:17 18° NNW visible
21 Oct ? 04:18:17 10° NNE 04:19:27 17° NNE 04:19:27 17° NNE visible
21 Oct ? 05:57:14 10° NNW 05:58:10 13° NNW 05:58:10 13° NNW visible
22 Oct ? 04:59:06 10° N 05:00:20 17° N 05:00:20 17° N visible
23 Oct ? 04:01:56 10° NNE 04:02:31 13° NNE 04:02:31 13° NNE visible
23 Oct ? 05:40:24 10° NNW 05:41:15 13° NNW 05:41:15 13° NNW visible
24 Oct ? 04:42:35 10° N 04:43:25 15° N 04:43:25 15° N visible
25 Oct ? 05:23:41 10° N 05:24:19 13° NNW 05:24:19 13° NNW visible
26 Oct ? 04:26:08 10° NNE 04:26:29 12° N 04:26:29 12° N visible
27 Oct ? 04:07:02 10° N 04:07:22 12° N 04:07:22 12° N visible
